Time,TemperatureF,DewpointF,PressureIn,WindDirection,WindDirectionDegrees,WindSpeedMPH,WindSpeedGustMPH,Humidity,HourlyPrecipIn,Conditions,Clouds,dailyrainin,SoftwareType,DateUTC
2013-02-16 00:03:00,73.4,65.1,29.87,NNW,338,4.3,5.4,75,0.00,,,0.00,WUHU216HW,2013-02-16 10:03:00,
2013-02-16 00:08:00,73.4,65.1,29.88,East,90,3.1,5.4,75,0.00,,,0.00,WUHU216HW,2013-02-16 10:08:00,
2013-02-16 00:13:00,73.4,65.1,29.88,SE,135,3.1,3.1,75,0.00,,,0.00,WUHU216HW,2013-02-16 10:13:00,
2013-02-16 00:16:00,73.4,65.1,29.88,NE,45,3.8,3.8,75,0.00,,,0.00,WUHU216HW,2013-02-16 10:16:00,
2013-02-16 00:18:00,73.4,65.1,29.88,NE,45,3.8,4.3,75,0.00,,,0.00,WUHU216HW,2013-02-16 10:18:00,
2013-02-16 00:23:00,73.4,65.1,29.88,NE,45,3.8,4.3,75,0.00,,,0.00,WUHU216HW,2013-02-16 10:23:00,
2013-02-16 00:46:00,73.4,65.1,29.87,NE,45,4.0,4.0,75,0.00,,,0.00,WUHU216HW,2013-02-16 10:46:00,
2013-02-16 00:51:00,73.4,65.1,29.87,NE,45,3.8,4.0,75,0.00,,,0.00,WUHU216HW,2013-02-16 10:51:00,
2013-02-16 00:56:00,73.4,65.1,29.87,SSW,203,5.1,5.1,75,0.00,,,0.00,WUHU216HW,2013-02-16 10:56:00,
2013-02-16 01:01:00,73.4,65.1,29.87,ESE,113,4.0,5.1,75,0.00,,,0.00,WUHU216HW,2013-02-16 11:01:00,
2013-02-16 01:06:00,73.4,65.1,29.87,West,270,6.9,7.8,75,0.00,,,0.00,WUHU216HW,2013-02-16 11:06:00,
2013-02-16 01:11:00,73.3,64.9,29.87,NNE,23,6.0,8.1,75,0.00,,,0.00,WUHU216HW,2013-02-16 11:11:00,
2013-02-16 01:16:00,73.1,64.7,29.87,North,0,5.8,8.3,75,0.00,,,0.00,WUHU216HW,2013-02-16 11:16:00,
2013-02-16 01:21:00,72.9,64.5,29.86,NNW,338,6.5,8.3,75,0.00,,,0.00,WUHU216HW,2013-02-16 11:21:00,
2013-02-16 01:26:00,72.7,64.7,29.86,NNW,338,4.7,6.5,76,0.00,,,0.00,WUHU216HW,2013-02-16 11:26:00,
2013-02-16 01:31:00,72.5,64.5,29.86,WSW,248,6.3,7.2,76,0.00,,,0.00,WUHU216HW,2013-02-16 11:31:00,
2013-02-16 01:36:00,72.5,64.5,29.86,North,0,4.9,7.2,76,0.00,,,0.00,WUHU216HW,2013-02-16 11:36:00,
2013-02-16 01:41:00,72.4,64.4,29.86,NE,45,5.4,6.7,76,0.00,,,0.00,WUHU216HW,2013-02-16 11:41:00,
2013-02-16 01:46:00,72.4,64.4,29.86,NNE,23,3.1,6.7,76,0.00,,,0.00,WUHU216HW,2013-02-16 11:46:00,
2013-02-16 01:51:00,72.4,64.4,29.86,ESE,113,4.9,5.4,76,0.00,,,0.00,WUHU216HW,2013-02-16 11:51:00,
2013-02-16 01:56:00,72.4,64.7,29.86,West,270,3.4,4.9,77,0.00,,,0.00,WUHU216HW,2013-02-16 11:56:00,
2013-02-16 02:01:00,72.5,64.9,29.86,NNW,338,7.8,7.8,77,0.00,,,0.00,WUHU216HW,2013-02-16 12:01:00,
2013-02-16 02:06:00,72.4,64.7,29.86,SE,135,2.7,7.8,77,0.00,,,0.00,WUHU216HW,2013-02-16 12:06:00,
2013-02-16 02:11:00,72.5,64.9,29.85,NE,45,3.4,7.8,77,0.00,,,0.00,WUHU216HW,2013-02-16 12:11:00,
2013-02-16 02:16:00,72.5,64.9,29.85,ENE,68,8.5,8.5,77,0.00,,,0.00,WUHU216HW,2013-02-16 12:16:00,
2013-02-16 02:21:00,72.5,64.9,29.85,NE,45,6.9,8.5,77,0.00,,,0.00,WUHU216HW,2013-02-16 12:21:00,
2013-02-16 02:26:00,72.5,64.5,29.85,ENE,68,6.9,10.1,76,0.00,,,0.00,WUHU216HW,2013-02-16 12:26:00,
2013-02-16 02:31:00,72.5,64.5,29.85,NNE,23,4.7,10.1,76,0.00,,,0.00,WUHU216HW,2013-02-16 12:31:00,
2013-02-16 02:36:00,72.5,64.5,29.85,ESE,113,3.4,6.9,76,0.00,,,0.00,WUHU216HW,2013-02-16 12:36:00,
2013-02-16 02:41:00,72.5,64.5,29.85,SSW,203,3.4,4.7,76,0.00,,,0.00,WUHU216HW,2013-02-16 12:41:00,
2013-02-16 02:46:00,72.5,64.9,29.85,ENE,68,3.6,6.0,77,0.00,,,0.00,WUHU216HW,2013-02-16 12:46:00,
2013-02-16 02:51:00,72.5,64.9,29.85,NNE,23,4.0,6.0,77,0.00,,,0.00,WUHU216HW,2013-02-16 12:51:00,
2013-02-16 02:56:00,72.5,64.5,29.85,North,0,4.7,5.4,76,0.00,,,0.00,WUHU216HW,2013-02-16 12:56:00,
2013-02-16 03:01:00,72.7,64.7,29.85,NNE,23,4.0,5.4,76,0.00,,,0.00,WUHU216HW,2013-02-16 13:01:00,
2013-02-16 03:06:00,72.7,64.7,29.85,West,270,3.1,5.8,76,0.00,,,0.00,WUHU216HW,2013-02-16 13:06:00,
2013-02-16 03:11:00,72.7,64.7,29.85,North,0,4.3,5.8,76,0.00,,,0.00,WUHU216HW,2013-02-16 13:11:00,
2013-02-16 03:16:00,72.7,64.7,29.85,NNE,23,2.5,6.0,76,0.00,,,0.00,WUHU216HW,2013-02-16 13:16:00,
2013-02-16 03:21:00,72.7,64.7,29.85,NE,45,4.0,6.7,76,0.00,,,0.00,WUHU216HW,2013-02-16 13:21:00,
2013-02-16 03:26:00,72.7,64.7,29.85,North,0,5.8,6.7,76,0.00,,,0.00,WUHU216HW,2013-02-16 13:26:00,
2013-02-16 03:31:00,72.5,64.5,29.84,NNW,338,6.0,6.0,76,0.00,,,0.00,WUHU216HW,2013-02-16 13:31:00,
2013-02-16 03:36:00,72.5,64.5,29.85,NNW,338,6.9,6.9,76,0.00,,,0.00,WUHU216HW,2013-02-16 13:36:00,
2013-02-16 03:41:00,72.5,64.5,29.85,WSW,248,3.8,6.9,76,0.00,,,0.00,WUHU216HW,2013-02-16 13:41:00,
2013-02-16 03:46:00,72.5,64.5,29.85,East,90,5.4,6.9,76,0.00,,,0.00,WUHU216HW,2013-02-16 13:46:00,
2013-02-16 03:51:00,72.5,64.5,29.85,ESE,113,2.5,6.3,76,0.00,,,0.00,WUHU216HW,2013-02-16 13:51:00,
2013-02-16 03:56:00,72.7,64.7,29.85,SE,135,4.5,6.3,76,0.00,,,0.00,WUHU216HW,2013-02-16 13:56:00,
2013-02-16 04:01:00,72.7,64.7,29.85,ESE,113,6.3,6.3,76,0.00,,,0.00,WUHU216HW,2013-02-16 14:01:00,
2013-02-16 04:06:00,72.7,64.7,29.84,ENE,68,3.8,6.3,76,0.00,,,0.00,WUHU216HW,2013-02-16 14:06:00,
2013-02-16 04:11:00,72.7,64.7,29.85,NE,45,4.7,6.3,76,0.00,,,0.00,WUHU216HW,2013-02-16 14:11:00,
2013-02-16 04:16:00,72.7,64.4,29.84,NW,315,2.2,4.7,75,0.00,,,0.00,WUHU216HW,2013-02-16 14:16:00,
2013-02-16 04:21:00,72.7,64.4,29.84,NW,315,3.4,7.2,75,0.00,,,0.00,WUHU216HW,2013-02-16 14:21:00,
2013-02-16 04:26:00,72.7,64.4,29.85,NW,315,5.4,7.2,75,0.00,,,0.00,WUHU216HW,2013-02-16 14:26:00,
2013-02-16 04:31:00,72.7,64.4,29.85,SSE,158,2.5,6.3,75,0.00,,,0.00,WUHU216HW,2013-02-16 14:31:00,
2013-02-16 04:36:00,72.7,64.4,29.85,SE,135,2.9,6.3,75,0.00,,,0.00,WUHU216HW,2013-02-16 14:36:00,
2013-02-16 04:41:00,72.7,64.4,29.84,East,90,5.4,5.4,75,0.00,,,0.00,WUHU216HW,2013-02-16 14:41:00,
2013-02-16 04:46:00,72.7,64.4,29.85,ENE,68,5.4,9.2,75,0.00,,,0.00,WUHU216HW,2013-02-16 14:46:00,
2013-02-16 04:51:00,72.7,64.4,29.85,North,0,4.3,9.2,75,0.00,,,0.00,WUHU216HW,2013-02-16 14:51:00,
2013-02-16 04:56:00,72.5,64.2,29.85,West,270,2.9,6.7,75,0.00,,,0.00,WUHU216HW,2013-02-16 14:56:00,
2013-02-16 05:01:00,72.5,64.2,29.85,NW,315,4.5,6.7,75,0.00,,,0.00,WUHU216HW,2013-02-16 15:01:00,
2013-02-16 05:06:00,72.5,64.2,29.85,North,0,3.4,4.5,75,0.00,,,0.00,WUHU216HW,2013-02-16 15:06:00,
2013-02-16 05:11:00,72.4,64.0,29.85,North,0,7.8,7.8,75,0.00,,,0.00,WUHU216HW,2013-02-16 15:11:00,
2013-02-16 05:16:00,72.4,64.0,29.85,ENE,68,1.3,7.8,75,0.00,,,0.00,WUHU216HW,2013-02-16 15:16:00,
2013-02-16 05:21:00,72.5,64.2,29.85,East,90,3.6,7.8,75,0.00,,,0.00,WUHU216HW,2013-02-16 15:21:00,
2013-02-16 05:26:00,72.5,64.2,29.85,NNE,23,2.7,3.6,75,0.00,,,0.00,WUHU216HW,2013-02-16 15:26:00,
2013-02-16 05:31:00,72.5,64.2,29.85,SE,135,4.7,4.7,75,0.00,,,0.00,WUHU216HW,2013-02-16 15:31:00,
2013-02-16 05:36:00,72.5,64.2,29.85,North,0,7.4,7.4,75,0.00,,,0.00,WUHU216HW,2013-02-16 15:36:00,
2013-02-16 05:41:00,72.5,64.2,29.85,NE,45,4.5,7.4,75,0.00,,,0.00,WUHU216HW,2013-02-16 15:41:00,
2013-02-16 05:46:00,72.5,64.2,29.86,South,180,3.4,7.4,75,0.00,,,0.00,WUHU216HW,2013-02-16 15:46:00,
2013-02-16 05:51:00,72.7,64.4,29.86,SE,135,4.0,4.5,75,0.00,,,0.00,WUHU216HW,2013-02-16 15:51:00,
2013-02-16 05:56:00,72.7,64.4,29.86,West,270,7.4,7.4,75,0.00,,,0.00,WUHU216HW,2013-02-16 15:56:00,
2013-02-16 06:01:00,72.7,64.4,29.86,North,0,5.8,7.4,75,0.00,,,0.00,WUHU216HW,2013-02-16 16:01:00,
2013-02-16 06:06:00,72.5,64.2,29.86,NNW,338,9.4,9.4,75,0.00,,,0.00,WUHU216HW,2013-02-16 16:06:00,
2013-02-16 06:07:00,72.5,64.2,29.86,ENE,68,7.8,7.8,75,0.00,,,0.00,WUHU216HW,2013-02-16 16:07:00,
2013-02-16 06:11:00,72.5,64.2,29.86,ENE,68,7.8,9.4,75,0.00,,,0.00,WUHU216HW,2013-02-16 16:11:00,
2013-02-16 06:16:00,72.5,64.2,29.86,ENE,68,7.8,7.8,75,0.00,,,0.00,WUHU216HW,2013-02-16 16:16:00,
2013-02-16 06:37:00,72.2,63.5,29.87,SSE,158,8.1,8.1,74,0.00,,,0.00,WUHU216HW,2013-02-16 16:37:00,
2013-02-16 06:42:00,72.2,63.5,29.88,SSE,158,4.5,8.1,74,0.00,,,0.00,WUHU216HW,2013-02-16 16:42:00,
2013-02-16 06:47:00,72.4,64.0,29.87,SW,225,4.7,8.1,75,0.00,,,0.00,WUHU216HW,2013-02-16 16:47:00,
2013-02-16 06:52:00,72.4,64.0,29.88,SE,135,4.7,5.8,75,0.00,,,0.00,WUHU216HW,2013-02-16 16:52:00,
2013-02-16 06:57:00,72.4,64.0,29.88,NE,45,11.4,11.4,75,0.00,,,0.00,WUHU216HW,2013-02-16 16:57:00,
2013-02-16 07:02:00,72.4,64.0,29.88,ENE,68,3.1,11.4,75,0.00,,,0.00,WUHU216HW,2013-02-16 17:02:00,
2013-02-16 07:07:00,72.4,64.0,29.88,NW,315,3.4,8.9,75,0.00,,,0.00,WUHU216HW,2013-02-16 17:07:00,
2013-02-16 07:12:00,72.4,64.0,29.88,NE,45,7.8,7.8,75,0.00,,,0.00,WUHU216HW,2013-02-16 17:12:00,
2013-02-16 07:17:00,72.2,63.5,29.88,North,0,4.9,10.3,74,0.00,,,0.00,WUHU216HW,2013-02-16 17:17:00,
2013-02-16 07:22:00,72.2,63.5,29.88,SE,135,7.2,10.3,74,0.00,,,0.00,WUHU216HW,2013-02-16 17:22:00,
2013-02-16 07:23:00,72.2,63.1,29.89,NE,45,6.7,6.7,73,0.00,,,0.00,WUHU216HW,2013-02-16 17:23:00,
2013-02-16 07:27:00,72.2,63.1,29.89,NE,45,6.7,10.3,73,0.00,,,0.00,WUHU216HW,2013-02-16 17:27:00,
2013-02-16 07:32:00,72.2,63.1,29.89,NE,45,6.7,6.7,73,0.00,,,0.00,WUHU216HW,2013-02-16 17:32:00,
2013-02-16 07:53:00,72.2,63.1,29.90,SE,135,6.9,6.9,73,0.00,,,0.00,WUHU216HW,2013-02-16 17:53:00,
2013-02-16 07:58:00,72.2,63.1,29.89,ENE,68,6.5,7.4,73,0.00,,,0.00,WUHU216HW,2013-02-16 17:58:00,
2013-02-16 08:03:00,72.0,62.9,29.89,WSW,248,8.5,8.5,73,0.00,,,0.00,WUHU216HW,2013-02-16 18:03:00,
2013-02-16 08:08:00,72.0,62.9,29.90,NE,45,8.9,8.9,73,0.00,,,0.00,WUHU216HW,2013-02-16 18:08:00,
2013-02-16 08:13:00,72.0,62.5,29.90,ENE,68,7.4,8.9,72,0.00,,,0.00,WUHU216HW,2013-02-16 18:13:00,
2013-02-16 08:18:00,72.0,62.5,29.90,NE,45,8.5,8.5,72,0.00,,,0.00,WUHU216HW,2013-02-16 18:18:00,
2013-02-16 08:23:00,72.0,62.5,29.91,ENE,68,9.4,9.4,72,0.00,,,0.00,WUHU216HW,2013-02-16 18:23:00,
2013-02-16 08:28:00,72.0,62.1,29.90,NE,45,8.5,9.4,71,0.00,,,0.00,WUHU216HW,2013-02-16 18:28:00,
2013-02-16 08:33:00,72.0,62.5,29.90,North,0,3.8,8.5,72,0.00,,,0.00,WUHU216HW,2013-02-16 18:33:00,
2013-02-16 08:38:00,72.0,62.5,29.91,ESE,113,7.4,8.5,72,0.00,,,0.00,WUHU216HW,2013-02-16 18:38:00,
2013-02-16 08:43:00,72.2,62.3,29.91,ENE,68,4.0,7.4,71,0.00,,,0.00,WUHU216HW,2013-02-16 18:43:00,
2013-02-16 08:48:00,72.2,62.3,29.91,North,0,9.4,9.4,71,0.00,,,0.00,WUHU216HW,2013-02-16 18:48:00,
2013-02-16 08:53:00,72.2,62.3,29.91,North,0,7.8,9.4,71,0.00,,,0.00,WUHU216HW,2013-02-16 18:53:00,
2013-02-16 08:58:00,72.0,62.1,29.91,NE,45,4.7,9.4,71,0.00,,,0.00,WUHU216HW,2013-02-16 18:58:00,
2013-02-16 09:03:00,72.2,62.3,29.91,NNW,338,4.3,9.4,71,0.00,,,0.00,WUHU216HW,2013-02-16 19:03:00,
2013-02-16 09:08:00,72.2,62.3,29.91,NW,315,4.7,4.7,71,0.00,,,0.00,WUHU216HW,2013-02-16 19:08:00,
2013-02-16 09:13:00,72.2,62.3,29.91,NW,315,5.4,6.3,71,0.00,,,0.00,WUHU216HW,2013-02-16 19:13:00,
2013-02-16 09:18:00,72.2,62.3,29.91,NNE,23,5.8,6.3,71,0.00,,,0.00,WUHU216HW,2013-02-16 19:18:00,
2013-02-16 09:23:00,72.4,62.5,29.91,NE,45,6.9,8.3,71,0.00,,,0.00,WUHU216HW,2013-02-16 19:23:00,
2013-02-16 09:28:00,72.4,62.5,29.91,NNW,338,4.9,8.3,71,0.00,,,0.00,WUHU216HW,2013-02-16 19:28:00,
2013-02-16 09:33:00,72.4,62.5,29.92,ENE,68,9.6,9.6,71,0.00,,,0.00,WUHU216HW,2013-02-16 19:33:00,
2013-02-16 09:38:00,72.4,62.5,29.91,NNE,23,4.7,9.6,71,0.00,,,0.00,WUHU216HW,2013-02-16 19:38:00,
2013-02-16 09:43:00,72.7,62.8,29.92,NNE,23,11.2,11.2,71,0.00,,,0.00,WUHU216HW,2013-02-16 19:43:00,
2013-02-16 09:48:00,72.5,62.3,29.92,NNE,23,4.7,11.2,70,0.00,,,0.00,WUHU216HW,2013-02-16 19:48:00,
2013-02-16 09:53:00,72.5,62.3,29.92,North,0,9.6,9.8,70,0.00,,,0.00,WUHU216HW,2013-02-16 19:53:00,
2013-02-16 09:58:00,72.5,61.8,29.92,ENE,68,8.5,9.8,69,0.00,,,0.00,WUHU216HW,2013-02-16 19:58:00,
2013-02-16 10:03:00,72.5,62.3,29.92,NE,45,2.5,8.5,70,0.00,,,0.00,WUHU216HW,2013-02-16 20:03:00,
2013-02-16 10:08:00,72.7,62.5,29.92,NNE,23,2.5,8.5,70,0.00,,,0.00,WUHU216HW,2013-02-16 20:08:00,
2013-02-16 10:13:00,72.9,62.6,29.92,NNW,338,6.9,8.3,70,0.00,,,0.00,WUHU216HW,2013-02-16 20:13:00,
2013-02-16 10:18:00,72.9,62.6,29.92,East,90,7.2,9.6,70,0.00,,,0.00,WUHU216HW,2013-02-16 20:18:00,
2013-02-16 10:23:00,72.7,62.5,29.92,NNE,23,9.2,9.6,70,0.00,,,0.00,WUHU216HW,2013-02-16 20:23:00,
2013-02-16 10:28:00,72.7,62.0,29.92,NW,315,6.7,9.2,69,0.00,,,0.00,WUHU216HW,2013-02-16 20:28:00,
2013-02-16 10:33:00,72.7,62.0,29.92,ESE,113,5.6,7.8,69,0.00,,,0.00,WUHU216HW,2013-02-16 20:33:00,
2013-02-16 10:38:00,72.9,62.2,29.92,SE,135,5.4,5.6,69,0.00,,,0.00,WUHU216HW,2013-02-16 20:38:00,
2013-02-16 10:43:00,72.9,62.6,29.92,ENE,68,2.7,5.6,70,0.00,,,0.00,WUHU216HW,2013-02-16 20:43:00,
2013-02-16 10:48:00,73.1,62.8,29.92,ENE,68,6.7,6.7,70,0.00,,,0.00,WUHU216HW,2013-02-16 20:48:00,
2013-02-16 10:53:00,73.1,62.8,29.91,WNW,293,4.3,6.7,70,0.00,,,0.00,WUHU216HW,2013-02-16 20:53:00,
2013-02-16 10:58:00,73.1,62.8,29.91,SSE,158,4.5,6.7,70,0.00,,,0.00,WUHU216HW,2013-02-16 20:58:00,
2013-02-16 11:03:00,73.1,62.4,29.91,North,0,6.9,11.4,69,0.00,,,0.00,WUHU216HW,2013-02-16 21:03:00,
2013-02-16 11:08:00,73.1,62.8,29.91,NNE,23,6.7,11.4,70,0.00,,,0.00,WUHU216HW,2013-02-16 21:08:00,
2013-02-16 11:13:00,73.3,63.0,29.91,NNE,23,7.8,7.8,70,0.00,,,0.00,WUHU216HW,2013-02-16 21:13:00,
2013-02-16 11:18:00,73.3,63.0,29.91,North,0,4.7,7.8,70,0.00,,,0.00,WUHU216HW,2013-02-16 21:18:00,
2013-02-16 11:23:00,73.3,63.0,29.91,NNW,338,7.8,7.8,70,0.00,,,0.00,WUHU216HW,2013-02-16 21:23:00,
2013-02-16 11:28:00,73.3,63.0,29.91,NE,45,4.7,7.8,70,0.00,,,0.00,WUHU216HW,2013-02-16 21:28:00,
2013-02-16 11:33:00,73.3,63.0,29.91,SSE,158,6.9,8.9,70,0.00,,,0.00,WUHU216HW,2013-02-16 21:33:00,
2013-02-16 11:38:00,73.3,63.0,29.90,NNE,23,6.9,8.9,70,0.00,,,0.00,WUHU216HW,2013-02-16 21:38:00,
2013-02-16 11:43:00,73.3,63.0,29.90,NNE,23,4.7,7.8,70,0.00,,,0.00,WUHU216HW,2013-02-16 21:43:00,
2013-02-16 11:48:00,73.3,63.0,29.90,West,270,6.0,6.5,70,0.00,,,0.00,WUHU216HW,2013-02-16 21:48:00,
2013-02-16 11:53:00,73.3,63.0,29.89,NE,45,3.1,6.5,70,0.00,,,0.00,WUHU216HW,2013-02-16 21:53:00,
2013-02-16 11:58:00,73.4,63.2,29.89,WNW,293,2.9,6.0,70,0.00,,,0.00,WUHU216HW,2013-02-16 21:58:00,
2013-02-16 12:03:00,73.4,63.2,29.89,SSW,203,3.8,4.9,70,0.00,,,0.00,WUHU216HW,2013-02-16 22:03:00,
2013-02-16 12:08:00,73.4,63.5,29.89,South,180,3.4,4.9,71,0.00,,,0.00,WUHU216HW,2013-02-16 22:08:00,
2013-02-16 12:13:00,73.6,63.7,29.89,NNE,23,6.0,6.0,71,0.00,,,0.00,WUHU216HW,2013-02-16 22:13:00,
2013-02-16 12:18:00,73.6,63.7,29.89,East,90,3.6,6.0,71,0.00,,,0.00,WUHU216HW,2013-02-16 22:18:00,
2013-02-16 12:23:00,73.6,63.7,29.89,ENE,68,3.8,6.0,71,0.00,,,0.00,WUHU216HW,2013-02-16 22:23:00,
2013-02-16 12:28:00,73.8,63.6,29.89,WNW,293,3.6,6.3,70,0.00,,,0.00,WUHU216HW,2013-02-16 22:28:00,
2013-02-16 12:33:00,73.8,63.6,29.89,SSE,158,4.0,6.3,70,0.00,,,0.00,WUHU216HW,2013-02-16 22:33:00,
2013-02-16 12:38:00,73.8,63.6,29.88,NNE,23,3.4,4.5,70,0.00,,,0.00,WUHU216HW,2013-02-16 22:38:00,
2013-02-16 12:43:00,73.8,63.6,29.88,ESE,113,4.3,4.5,70,0.00,,,0.00,WUHU216HW,2013-02-16 22:43:00,
2013-02-16 12:48:00,73.8,63.6,29.88,East,90,4.9,4.9,70,0.00,,,0.00,WUHU216HW,2013-02-16 22:48:00,
2013-02-16 12:53:00,74.0,63.6,29.88,WSW,248,2.5,4.9,70,0.00,,,0.00,WUHU216HW,2013-02-16 22:53:00,
2013-02-16 12:58:00,74.0,63.6,29.88,North,0,3.1,4.3,70,0.00,,,0.00,WUHU216HW,2013-02-16 22:58:00,
2013-02-16 13:01:00,74.2,63.8,29.88,North,0,2.9,2.9,70,0.00,,,0.00,WUHU216HW,2013-02-16 23:01:00,
2013-02-16 13:03:00,74.2,63.8,29.88,North,0,2.9,4.3,70,0.00,,,0.00,WUHU216HW,2013-02-16 23:03:00,
2013-02-16 13:08:00,74.2,63.8,29.88,North,0,2.9,2.9,70,0.00,,,0.00,WUHU216HW,2013-02-16 23:08:00,
2013-02-16 13:31:00,74.3,64.0,29.87,SSE,158,3.6,3.6,70,0.00,,,0.00,WUHU216HW,2013-02-16 23:31:00,
2013-02-16 13:36:00,74.3,64.0,29.87,North,0,3.4,3.6,70,0.00,,,0.00,WUHU216HW,2013-02-16 23:36:00,
2013-02-16 13:41:00,74.3,64.0,29.87,SSW,203,1.6,3.4,70,0.00,,,0.00,WUHU216HW,2013-02-16 23:41:00,
2013-02-16 13:46:00,74.3,64.0,29.86,West,270,4.0,4.3,70,0.00,,,0.00,WUHU216HW,2013-02-16 23:46:00,
2013-02-16 13:51:00,74.3,64.0,29.86,SSE,158,4.0,4.3,70,0.00,,,0.00,WUHU216HW,2013-02-16 23:51:00,
2013-02-16 13:56:00,74.3,64.0,29.86,SSE,158,4.0,4.0,70,0.00,,,0.00,WUHU216HW,2013-02-16 23:56:00,
2013-02-16 14:01:00,74.3,63.5,29.85,North,0,4.3,4.3,69,0.00,,,0.00,WUHU216HW,2013-02-17 00:01:00,
2013-02-16 14:06:00,74.3,63.5,29.86,SE,135,3.8,4.3,69,0.00,,,0.00,WUHU216HW,2013-02-17 00:06:00,
2013-02-16 14:11:00,74.5,63.7,29.85,NNE,23,2.5,3.8,69,0.00,,,0.00,WUHU216HW,2013-02-17 00:11:00,
2013-02-16 14:16:00,74.5,63.7,29.85,NNW,338,4.3,4.3,69,0.00,,,0.00,WUHU216HW,2013-02-17 00:16:00,
2013-02-16 14:21:00,74.5,63.7,29.85,SE,135,2.5,4.3,69,0.00,,,0.00,WUHU216HW,2013-02-17 00:21:00,
2013-02-16 14:26:00,74.5,63.7,29.85,ESE,113,5.4,5.4,69,0.00,,,0.00,WUHU216HW,2013-02-17 00:26:00,
2013-02-16 14:31:00,74.5,64.2,29.85,ESE,113,2.7,5.4,70,0.00,,,0.00,WUHU216HW,2013-02-17 00:31:00,
2013-02-16 14:36:00,74.5,64.2,29.85,NE,45,3.6,3.6,70,0.00,,,0.00,WUHU216HW,2013-02-17 00:36:00,
2013-02-16 14:41:00,74.5,64.2,29.85,SE,135,2.9,3.6,70,0.00,,,0.00,WUHU216HW,2013-02-17 00:41:00,
2013-02-16 14:46:00,74.5,64.2,29.84,South,180,3.4,3.4,70,0.00,,,0.00,WUHU216HW,2013-02-17 00:46:00,
2013-02-16 14:51:00,74.5,64.2,29.85,ESE,113,2.5,3.4,70,0.00,,,0.00,WUHU216HW,2013-02-17 00:51:00,
2013-02-16 14:56:00,74.5,63.7,29.85,SE,135,3.4,3.4,69,0.00,,,0.00,WUHU216HW,2013-02-17 00:56:00,
2013-02-16 15:01:00,74.5,63.7,29.85,ESE,113,1.6,4.0,69,0.00,,,0.00,WUHU216HW,2013-02-17 01:01:00,
2013-02-16 15:06:00,74.5,63.7,29.85,WNW,293,3.4,4.0,69,0.00,,,0.00,WUHU216HW,2013-02-17 01:06:00,
2013-02-16 15:11:00,74.5,63.7,29.85,SSE,158,2.0,3.4,69,0.00,,,0.00,WUHU216HW,2013-02-17 01:11:00,
2013-02-16 15:16:00,74.5,63.7,29.85,NNE,23,5.8,5.8,69,0.00,,,0.00,WUHU216HW,2013-02-17 01:16:00,
2013-02-16 15:21:00,74.5,63.3,29.85,South,180,2.5,7.4,68,0.00,,,0.00,WUHU216HW,2013-02-17 01:21:00,
2013-02-16 15:26:00,74.5,63.3,29.85,East,90,2.2,7.4,68,0.00,,,0.00,WUHU216HW,2013-02-17 01:26:00,
2013-02-16 15:31:00,74.5,63.3,29.84,WNW,293,3.4,4.9,68,0.00,,,0.00,WUHU216HW,2013-02-17 01:31:00,
2013-02-16 15:36:00,74.5,63.3,29.85,NE,45,2.5,3.4,68,0.00,,,0.00,WUHU216HW,2013-02-17 01:36:00,
2013-02-16 15:41:00,74.5,63.3,29.85,SSE,158,2.9,3.4,68,0.00,,,0.00,WUHU216HW,2013-02-17 01:41:00,
2013-02-16 15:46:00,74.5,63.3,29.85,SW,225,2.2,5.4,68,0.00,,,0.00,WUHU216HW,2013-02-17 01:46:00,
2013-02-16 15:51:00,74.5,62.8,29.85,South,180,3.6,5.4,67,0.00,,,0.00,WUHU216HW,2013-02-17 01:51:00,
2013-02-16 15:56:00,74.5,62.8,29.85,East,90,2.0,4.3,67,0.00,,,0.00,WUHU216HW,2013-02-17 01:56:00,
2013-02-16 16:01:00,74.5,62.8,29.85,NW,315,4.3,4.3,67,0.00,,,0.00,WUHU216HW,2013-02-17 02:01:00,
2013-02-16 16:06:00,74.5,62.4,29.85,North,0,2.0,8.5,66,0.00,,,0.00,WUHU216HW,2013-02-17 02:06:00,
2013-02-16 16:11:00,74.5,62.4,29.85,SE,135,2.5,8.5,66,0.00,,,0.00,WUHU216HW,2013-02-17 02:11:00,
2013-02-16 16:16:00,74.5,62.4,29.85,ESE,113,2.7,4.9,66,0.00,,,0.00,WUHU216HW,2013-02-17 02:16:00,
2013-02-16 16:21:00,74.5,62.4,29.85,South,180,1.8,4.0,66,0.00,,,0.00,WUHU216HW,2013-02-17 02:21:00,
2013-02-16 16:26:00,74.5,62.4,29.85,NW,315,1.3,4.0,66,0.00,,,0.00,WUHU216HW,2013-02-17 02:26:00,
2013-02-16 16:31:00,74.5,62.8,29.85,NE,45,3.1,3.1,67,0.00,,,0.00,WUHU216HW,2013-02-17 02:31:00,
2013-02-16 16:36:00,74.7,63.0,29.85,NE,45,1.8,3.1,67,0.00,,,0.00,WUHU216HW,2013-02-17 02:36:00,
2013-02-16 16:41:00,74.7,63.0,29.85,ENE,68,1.8,3.8,67,0.00,,,0.00,WUHU216HW,2013-02-17 02:41:00,
2013-02-16 16:46:00,74.7,63.0,29.85,East,90,2.2,5.4,67,0.00,,,0.00,WUHU216HW,2013-02-17 02:46:00,
2013-02-16 16:51:00,74.7,63.0,29.85,South,180,3.1,5.4,67,0.00,,,0.00,WUHU216HW,2013-02-17 02:51:00,
2013-02-16 16:56:00,74.7,63.0,29.86,NNE,23,3.1,3.1,67,0.00,,,0.00,WUHU216HW,2013-02-17 02:56:00,
2013-02-16 17:01:00,74.5,62.4,29.85,ESE,113,4.9,4.9,66,0.00,,,0.00,WUHU216HW,2013-02-17 03:01:00,
2013-02-16 17:06:00,74.5,62.4,29.86,North,0,4.0,4.9,66,0.00,,,0.00,WUHU216HW,2013-02-17 03:06:00,
2013-02-16 17:11:00,74.5,62.4,29.86,ESE,113,1.8,4.9,66,0.00,,,0.00,WUHU216HW,2013-02-17 03:11:00,
2013-02-16 17:16:00,74.3,62.2,29.86,SE,135,4.3,4.3,66,0.00,,,0.00,WUHU216HW,2013-02-17 03:16:00,
2013-02-16 17:21:00,74.3,62.2,29.86,SSW,203,3.4,4.3,66,0.00,,,0.00,WUHU216HW,2013-02-17 03:21:00,
2013-02-16 17:26:00,74.3,62.6,29.86,SSW,203,2.9,3.4,67,0.00,,,0.00,WUHU216HW,2013-02-17 03:26:00,
2013-02-16 17:31:00,74.3,62.6,29.86,South,180,3.8,4.3,67,0.00,,,0.00,WUHU216HW,2013-02-17 03:31:00,
2013-02-16 17:36:00,74.3,62.6,29.86,SE,135,2.7,4.5,67,0.00,,,0.00,WUHU216HW,2013-02-17 03:36:00,
2013-02-16 17:41:00,74.3,62.6,29.86,NNW,338,2.7,4.5,67,0.00,,,0.00,WUHU216HW,2013-02-17 03:41:00,
2013-02-16 17:46:00,74.2,62.5,29.86,ENE,68,4.0,4.0,67,0.00,,,0.00,WUHU216HW,2013-02-17 03:46:00,
2013-02-16 17:51:00,74.2,62.5,29.86,ENE,68,2.0,4.0,67,0.00,,,0.00,WUHU216HW,2013-02-17 03:51:00,
2013-02-16 17:56:00,74.0,62.4,29.86,SSW,203,3.6,3.8,67,0.00,,,0.00,WUHU216HW,2013-02-17 03:56:00,
2013-02-16 18:01:00,74.0,62.4,29.86,SSW,203,2.9,3.8,67,0.00,,,0.00,WUHU216HW,2013-02-17 04:01:00,
2013-02-16 18:06:00,74.0,62.4,29.86,SSE,158,2.5,7.8,67,0.00,,,0.00,WUHU216HW,2013-02-17 04:06:00,
2013-02-16 18:11:00,73.8,62.2,29.86,North,0,4.0,7.8,67,0.00,,,0.00,WUHU216HW,2013-02-17 04:11:00,
2013-02-16 18:16:00,73.8,62.2,29.87,East,90,3.8,6.5,67,0.00,,,0.00,WUHU216HW,2013-02-17 04:16:00,
2013-02-16 18:21:00,73.8,62.2,29.87,NNW,338,3.4,6.5,67,0.00,,,0.00,WUHU216HW,2013-02-17 04:21:00,
2013-02-16 18:26:00,73.8,62.2,29.87,SSE,158,4.3,6.3,67,0.00,,,0.00,WUHU216HW,2013-02-17 04:26:00,
2013-02-16 18:31:00,73.8,62.7,29.87,West,270,3.4,4.3,68,0.00,,,0.00,WUHU216HW,2013-02-17 04:31:00,
2013-02-16 18:36:00,73.8,62.2,29.87,NE,45,3.1,6.9,67,0.00,,,0.00,WUHU216HW,2013-02-17 04:36:00,
2013-02-16 18:41:00,73.8,62.2,29.87,NE,45,3.6,6.9,67,0.00,,,0.00,WUHU216HW,2013-02-17 04:41:00,
2013-02-16 18:46:00,73.8,62.7,29.87,East,90,2.9,4.7,68,0.00,,,0.00,WUHU216HW,2013-02-17 04:46:00,
2013-02-16 18:51:00,73.8,62.2,29.87,East,90,1.8,6.3,67,0.00,,,0.00,WUHU216HW,2013-02-17 04:51:00,
2013-02-16 18:56:00,73.8,62.7,29.87,NNE,23,10.3,10.3,68,0.00,,,0.00,WUHU216HW,2013-02-17 04:56:00,
2013-02-16 19:00:00,73.8,62.7,29.87,NW,315,4.7,10.3,68,0.00,,,0.00,WUHU216HW,2013-02-17 05:00:00,
2013-02-16 19:05:00,73.6,62.0,29.87,WSW,248,3.4,10.3,67,0.00,,,0.00,WUHU216HW,2013-02-17 05:05:00,
2013-02-16 19:10:00,73.4,61.8,29.88,NNW,338,5.1,6.7,67,0.00,,,0.00,WUHU216HW,2013-02-17 05:10:00,
2013-02-16 19:15:00,73.6,62.0,29.88,ENE,68,2.5,6.7,67,0.00,,,0.00,WUHU216HW,2013-02-17 05:15:00,
2013-02-16 19:20:00,73.4,61.8,29.88,ESE,113,4.5,6.0,67,0.00,,,0.00,WUHU216HW,2013-02-17 05:20:00,
2013-02-16 19:25:00,73.4,61.8,29.88,NE,45,1.1,6.9,67,0.00,,,0.00,WUHU216HW,2013-02-17 05:25:00,
2013-02-16 19:30:00,73.4,61.8,29.88,ESE,113,5.4,6.9,67,0.00,,,0.00,WUHU216HW,2013-02-17 05:30:00,
2013-02-16 19:35:00,73.4,61.8,29.88,NW,315,2.0,5.4,67,0.00,,,0.00,WUHU216HW,2013-02-17 05:35:00,
2013-02-16 19:40:00,73.4,61.8,29.88,North,0,2.9,8.3,67,0.00,,,0.00,WUHU216HW,2013-02-17 05:40:00,
2013-02-16 19:45:00,73.4,61.8,29.88,NNW,338,6.0,8.3,67,0.00,,,0.00,WUHU216HW,2013-02-17 05:45:00,
2013-02-16 19:50:00,73.4,61.8,29.89,North,0,4.7,6.0,67,0.00,,,0.00,WUHU216HW,2013-02-17 05:50:00,
2013-02-16 19:55:00,73.4,61.8,29.89,ENE,68,6.3,8.5,67,0.00,,,0.00,WUHU216HW,2013-02-17 05:55:00,
2013-02-16 20:00:00,73.3,61.7,29.89,NNE,23,6.7,8.5,67,0.00,,,0.00,WUHU216HW,2013-02-17 06:00:00,
2013-02-16 20:05:00,73.1,61.5,29.89,NNE,23,5.4,8.1,67,0.00,,,0.00,WUHU216HW,2013-02-17 06:05:00,
2013-02-16 20:10:00,73.1,61.5,29.89,North,0,4.0,8.1,67,0.00,,,0.00,WUHU216HW,2013-02-17 06:10:00,
2013-02-16 20:15:00,73.1,61.5,29.90,NNW,338,2.7,5.8,67,0.00,,,0.00,WUHU216HW,2013-02-17 06:15:00,
2013-02-16 20:20:00,73.1,61.5,29.90,North,0,5.1,5.1,67,0.00,,,0.00,WUHU216HW,2013-02-17 06:20:00,
2013-02-16 20:25:00,73.1,61.5,29.90,SE,135,3.1,5.6,67,0.00,,,0.00,WUHU216HW,2013-02-17 06:25:00,
2013-02-16 20:30:00,73.1,61.5,29.90,ENE,68,5.4,5.6,67,0.00,,,0.00,WUHU216HW,2013-02-17 06:30:00,
2013-02-16 20:35:00,73.1,61.5,29.91,North,0,6.0,6.0,67,0.00,,,0.00,WUHU216HW,2013-02-17 06:35:00,
2013-02-16 20:40:00,73.1,61.5,29.90,SE,135,1.8,6.0,67,0.00,,,0.00,WUHU216HW,2013-02-17 06:40:00,
2013-02-16 20:45:00,73.1,61.9,29.90,South,180,5.6,5.6,68,0.00,,,0.00,WUHU216HW,2013-02-17 06:45:00,
2013-02-16 20:50:00,73.1,61.9,29.90,WNW,293,4.0,5.6,68,0.00,,,0.00,WUHU216HW,2013-02-17 06:50:00,
2013-02-16 20:55:00,73.3,62.1,29.90,North,0,2.9,5.6,68,0.00,,,0.00,WUHU216HW,2013-02-17 06:55:00,
2013-02-16 21:00:00,73.3,62.1,29.90,SSE,158,3.4,4.0,68,0.00,,,0.00,WUHU216HW,2013-02-17 07:00:00,
2013-02-16 21:05:00,73.3,62.1,29.90,WNW,293,4.3,5.8,68,0.00,,,0.00,WUHU216HW,2013-02-17 07:05:00,
2013-02-16 21:10:00,73.4,62.3,29.90,East,90,4.7,5.8,68,0.00,,,0.00,WUHU216HW,2013-02-17 07:10:00,
2013-02-16 21:15:00,73.4,62.7,29.90,SE,135,2.7,4.7,69,0.00,,,0.00,WUHU216HW,2013-02-17 07:15:00,
2013-02-16 21:20:00,73.4,62.7,29.90,NNE,23,3.1,4.7,69,0.00,,,0.00,WUHU216HW,2013-02-17 07:20:00,
2013-02-16 21:25:00,73.4,62.7,29.90,SSE,158,5.6,5.6,69,0.00,,,0.00,WUHU216HW,2013-02-17 07:25:00,
2013-02-16 21:30:00,73.4,62.7,29.91,SW,225,4.7,6.7,69,0.00,,,0.00,WUHU216HW,2013-02-17 07:30:00,
2013-02-16 21:35:00,73.4,62.7,29.91,East,90,3.4,6.7,69,0.00,,,0.00,WUHU216HW,2013-02-17 07:35:00,
2013-02-16 21:40:00,73.4,62.7,29.91,ESE,113,3.8,6.3,69,0.00,,,0.00,WUHU216HW,2013-02-17 07:40:00,
2013-02-16 21:45:00,73.4,62.7,29.91,WSW,248,3.8,6.0,69,0.00,,,0.00,WUHU216HW,2013-02-17 07:45:00,
2013-02-16 21:50:00,73.4,62.7,29.91,South,180,3.4,6.0,69,0.00,,,0.00,WUHU216HW,2013-02-17 07:50:00,
2013-02-16 21:55:00,73.4,62.7,29.91,ENE,68,3.6,5.8,69,0.00,,,0.00,WUHU216HW,2013-02-17 07:55:00,
2013-02-16 22:00:00,73.4,62.7,29.91,East,90,6.0,6.0,69,0.00,,,0.00,WUHU216HW,2013-02-17 08:00:00,
2013-02-16 22:05:00,73.4,62.7,29.91,ENE,68,5.8,6.0,69,0.00,,,0.00,WUHU216HW,2013-02-17 08:05:00,
2013-02-16 22:10:00,73.4,62.7,29.91,ENE,68,2.0,6.0,69,0.00,,,0.00,WUHU216HW,2013-02-17 08:10:00,
2013-02-16 22:15:00,73.4,62.7,29.91,North,0,4.7,6.3,69,0.00,,,0.00,WUHU216HW,2013-02-17 08:15:00,
2013-02-16 22:20:00,73.4,62.7,29.91,North,0,4.7,6.3,69,0.00,,,0.00,WUHU216HW,2013-02-17 08:20:00,
2013-02-16 22:25:00,73.4,62.7,29.91,NNE,23,4.3,4.9,69,0.00,,,0.00,WUHU216HW,2013-02-17 08:25:00,
2013-02-16 22:30:00,73.4,62.7,29.92,SE,135,2.7,6.3,69,0.00,,,0.00,WUHU216HW,2013-02-17 08:30:00,
2013-02-16 22:35:00,73.4,62.7,29.92,SSE,158,1.6,6.3,69,0.00,,,0.00,WUHU216HW,2013-02-17 08:35:00,
2013-02-16 22:40:00,73.4,62.7,29.91,South,180,3.4,6.3,69,0.00,,,0.00,WUHU216HW,2013-02-17 08:40:00,
2013-02-16 22:45:00,73.4,62.7,29.91,SW,225,2.0,4.3,69,0.00,,,0.00,WUHU216HW,2013-02-17 08:45:00,
2013-02-16 22:50:00,73.4,62.7,29.91,NNE,23,3.8,4.3,69,0.00,,,0.00,WUHU216HW,2013-02-17 08:50:00,
2013-02-16 22:55:00,73.4,62.7,29.91,ESE,113,4.0,4.5,69,0.00,,,0.00,WUHU216HW,2013-02-17 08:55:00,
2013-02-16 23:00:00,73.4,62.3,29.91,West,270,4.0,5.4,68,0.00,,,0.00,WUHU216HW,2013-02-17 09:00:00,
2013-02-16 23:05:00,73.3,62.1,29.91,ESE,113,3.4,6.3,68,0.00,,,0.00,WUHU216HW,2013-02-17 09:05:00,
2013-02-16 23:10:00,73.3,62.1,29.91,SSE,158,2.2,6.7,68,0.00,,,0.00,WUHU216HW,2013-02-17 09:10:00,
2013-02-16 23:15:00,73.3,62.1,29.91,NE,45,3.6,6.7,68,0.00,,,0.00,WUHU216HW,2013-02-17 09:15:00,
2013-02-16 23:20:00,73.3,62.1,29.92,NNE,23,6.3,6.3,68,0.00,,,0.00,WUHU216HW,2013-02-17 09:20:00,
2013-02-16 23:25:00,73.4,62.7,29.92,ESE,113,3.6,6.3,69,0.00,,,0.00,WUHU216HW,2013-02-17 09:25:00,
2013-02-16 23:30:00,73.3,62.6,29.91,SSE,158,3.8,6.3,69,0.00,,,0.00,WUHU216HW,2013-02-17 09:30:00,
2013-02-16 23:35:00,73.3,62.6,29.91,SE,135,1.3,4.9,69,0.00,,,0.00,WUHU216HW,2013-02-17 09:35:00,
2013-02-16 23:40:00,73.3,62.6,29.91,East,90,4.5,4.5,69,0.00,,,0.00,WUHU216HW,2013-02-17 09:40:00,
2013-02-16 23:46:00,73.3,62.6,29.91,East,90,2.5,4.7,69,0.00,,,0.00,WUHU216HW,2013-02-17 09:46:00,
2013-02-16 23:51:00,73.3,62.6,29.91,ESE,113,3.1,6.3,69,0.00,,,0.00,WUHU216HW,2013-02-17 09:51:00,
2013-02-16 23:55:00,73.3,62.6,29.91,SSE,158,2.5,6.9,69,0.00,,,0.00,WUHU216HW,2013-02-17 09:55:00,